Notices

What's New in latest Release from April 7th, 2021:

- Updated Glossary, including Speed of Maximum Gust, and Total Hourly Precipitation

- Updated national and regional climate services offices contacts and prices information

- Addition of station inventory lists for 1981-2010, 1971-2000, and 1961-1990 Normals.

If you haven't already, please take our survey and provide feedback about our website: https://eccc.sondage-survey.ca/f/LanguageSelection.aspx?s=442ca660-fcf1-47c0-95a9-59707d6fd709

Hourly Data Report for March 09, 2004

SHERBROOKE A
QUEBEC

45°26'00.000" N
71°41'00.000" W
241.40 m
7028124
71610
YSC

Download Data

Hourly Data (March 2004)
Hourly Data Report for March 9, 2004
TIME
LST
Temp Definition
°C
Dew Point Definition
°C
Rel Hum Definition
%
Precip. Amount Definition
mm

Wind Dir Definition
10's deg

Wind Spd Definition
km/h
Visibility Definition
km
Stn Press Definition
kPa
Hmdx Definition


Wind Chill Definition


Weather Definition


00:00 -5.7 -13.1 56   5 11 15.0 98.45   -10  
01:00 -6.5 -13.7 57   4 9 15.0 98.50   -11  
02:00 -7.1 -14.1 57   4 11 15.0 98.51   -12  
03:00 -7.9 -14.4 60   5 9 15.0 98.50   -12  
04:00 -8.6 -14.8 61   4 11 15.0 98.54   -14  
05:00 -9.6 -15.5 62   8 7 15.0 98.60   -14  
06:00 -10.0 -15.8 63   6 7 15.0 98.67   -14  
07:00 -9.6 -15.7 61   4 11 15.0 98.76   -15  
08:00 -8.5 -15.4 57   5 11 24.1 98.85   -14 Mostly Cloudy
09:00 -6.4 -14.7 52   4 7 24.1 98.91   -10 Mostly Cloudy
10:00 -4.4 -13.8 48   3 7 24.1 98.93   -8 Mostly Cloudy
11:00 -2.9 -13.8 43   3 7 24.1 98.95   -6 Mostly Cloudy
12:00 -1.5 -12.3 44     0 24.1 98.98     Mostly Cloudy
13:00 -0.5 -13.3 37   16 4 24.1 98.97   -2 Mostly Cloudy
14:00 -0.2 -11.9 41   27 9 24.1 99.00   -3 Mostly Cloudy
15:00 -0.2 -12.9 38   27 6 24.1 99.02   -2 Mostly Cloudy
16:00 -0.2 -12.1 40   29 13 24.1 99.06   -4 Mostly Cloudy
17:00 -1.0 -12.1 43   27 7 24.1 99.13   -4 Mostly Cloudy
18:00 -2.2 -13.0 43   28 6 15.0 99.23   -5  
19:00 -3.5 -13.4 46   31 4 15.0 99.32   -5  
20:00 -4.4 -13.5 49   31 4 15.0 99.38   -6  
21:00 -7.4 -14.1 59     0 15.0 99.46      
22:00 -8.5 -14.5 62     0 15.0 99.51      
23:00 -9.6 -15.0 65     0 15.0 99.53      

Notes on Data Quality.

Legend

  • E = Estimated
  • M = Missing
  • NA = Not Available*
  • [empty] = Indicates an unobserved value
Date modified: